SCP
-0 -0 -0 -0 0 0 0 -0 0 -0 -0 -0 -0 -0 -0 -0 0 0 -0 -0 -0 -0 -0 -0 0 -0 -0 -0 -0 -0 0 0 0 0 0 0 0 0 0 0 0 -0 -0 0 0 -0 -0 -0 0
-0 -0 0 -0 0 0 0 -0 -0 0 -0 -0 -0 -0 -0 -0 -0 -0 0 -0 -0 -0 -0 -0 0 -0 -0 0 0 0 0 0 0 0 0 0 0 0 0 0 -0 0 0 0 -0 -0 -0 -0 0
-0 0 -0 -0 0 -0 0 -0 -0 -0 -0 0 0 0 0 0 -0 -0 -0 -0 -0 -0 -0 -0 -0 -0 0 0 0 0 0 0 0 0 0 0 -0 0 -0 -0 0 0 0 0 -0 -0 -0 -0 0
0 0 0 -0 0 0 0 -0 -0 -0 -0 0 -0 0 0 0 -0 -0 0 -0 -0 -0 -0 -0 -0 -0 -0 -0 0 0 0 0 0 0 0 0 -0 0 -0 0 0 0 0 0 -0 -0 -0 -0 -0
0 0 -0 -0 0 -0 -0 -0 0 0 -0 0 -0 0 0 -0 -0 -0 0 0 -0 -0 -0 -0 -0 0 0 -0 -0 0 0 0 0 0 0 0 0 0 0 0 0 0 0 -0 -0 -0 -0 -0 0
0 0 -0 -0 0 -0 0 0 0 -0 -0 -0 -0 -0 0 -0 -0 -0 0 0 -0 -0 -0 -0 -0 0 -0 -0 0 -0 0 -0 0 0 0 0 0 0 0 -0 -0 -0 -0 -0 -0 -0 -0 -0 0
0 0 0 -0 0 -0 -0 -0 -0 -0 -0 -0 -0 -0 0 -0 -0 -0 0 -0 0 -0 -0 -0 -0 0 -0 0 0 0 -0 0 0 0 0 0 0 0 -0 -0 -0 -0 -0 -0 -0 -0 -0 -0 0
0 0 0 0 -0 -0 -0 -0 -0 -0 -0 -0 -0 0 -0 -0 0 0 0 -0 0 0 -0 0 0 -0 0 0 -0 -0 0 0 0 0 -0 -0 -0 0 0 0 -0 -0 -0 -0 -0 -0 -0 -0 0
0 0 0 -0 -0 -0 -0 0 -0 0 -0 -0 -0 -0 -0 -0 -0 -0 -0 0 0 0 0 0 -0 -0 -0 -0 -0 -0 -0 0 -0 -0 -0 0 0 0 -0 -0 -0 -0 -0 -0 -0 -0 -0 -0 -0
0 0 0 -0 0 0 -0 0 -0 -0 0 -0 -0 -1 -0 -0 -0 -0 -0 -0 0 0 0 0 0 -0 0 0 0 0 0 0 0 0 -0 -0 -0 -0 0 0 -0 -0 -0 -0 -0 -0 -0 -0 -0
-0 0 -0 -0 0 0 -0 -0 -0 -0 0 -0 -0 -0 -0 -0 -0 -0 -0 -0 -0 0 0 0 0 -0 0 0 -0 0 0 0 0 0 0 -0 0 -0 -0 0 -0 -0 0 -0 -0 0 -0 0 -0
-0 -0 0 -0 -0 -0 -0 -0 -0 -0 -0 -0 -0 -0 -0 -0 -0 -0 -0 0 0 -0 0 0 -0 0 0 0 0 0 0 -0 0 0 -0 -0 0 -0 0 0 0 0 0 0 -0 0 -0 -0 -0
0 0 0 0 0 -0 0 -0 0 -0 0 -0 -0 -0 -0 -0 -0 -0 0 0 0 0 0 -0 0 0 0 0 0 0 -0 -0 0 -0 -0 -0 -0 0 0 0 0 0 -0 -0 -0 0 0 -0 -0
0 0 0 0 0 0 0 0 0 0 -0 -0 -0 -0 -0 0 0 0 -0 0 0 0 0 -0 -0 0 0 0 0 0 0 0 -0 0 -0 -0 -0 -0 0 0 -0 0 0 0 -0 -0 -0 0 0
0 -0 0 0 0 0 0 0 0 0 0 -0 -0 0 -0 -0 0 -0 -0 0 -0 -0 0 0 0 0 0 0 0 0 0 -0 0 0 -0 -0 -0 0 0 0 0 -0 -0 -0 -0 -0 -0 0 0
0 0 0 0 0 -0 0 0 0 0 0 -0 0 0 -0 -0 -0 -0 -0 -0 0 0 0 0 0 0 0 0 0 0 -0 0 0 0 0 -0 -0 -0 0 0 0 -0 0 -0 -0 0 0 -0 -0
0 -0 -0 -0 -0 -0 0 0 0 0 0 -0 -0 0 0 0 -0 -0 -0 0 -0 0 0 0 0 0 0 0 -0 -0 -0 -0 -0 0 0 -0 -0 -0 0 0 0 -0 -0 0 0 -0 0 -0 0
0 -0 -0 -0 -0 -0 -0 -0 0 0 0 0 0 -0 0 0 0 0 -0 -0 0 0 -0 -0 0 0 0 0 -0 0 -0 0 -0 0 0 0 0 -0 0 0 0 0 -0 0 -0 0 -0 -0 -0
-0 -0 -0 0 0 0 -0 -0 -0 -0 0 0 0 0 -0 0 0 0 0 0 0 -0 0 0 0 0 0 0 -0 -0 -0 0 0 0 0 0 -0 0 0 0 0 0 0 -0 -0 -0 -0 -0 -0
-0 -0 -0 0 0 -0 -0 -0 -0 -0 -0 -0 -0 0 -0 -0 -0 -0 0 -0 -0 0 -0 -0 -0 -0 0 -0 -0 -0 0 -0 0 0 0 0 0 0 0 0 0 0 0 0 -0 -0 -0 -0 0
-0 -0 0 0 -0 -0 -0 -0 -0 -0 -0 -0 -0 -0 -0 -0 -0 -0 -0 -0 -0 0 0 0 -0 -0 -0 -0 0 -0 -0 -0 -0 0 0 0 0 0 0 0 0 0 0 0 0 -0 -0 -0 0
-0 0 0 0 -0 0 0 0 -0 -0 0 -0 -0 -0 -0 -0 -0 -0 -0 -0 -0 -0 0 0 -0 0 0 0 0 -0 0 0 -0 0 0 0 0 0 0 0 0 0 0 0 0 -0 -0 -0 -0
0 -0 -0 -0 -0 -0 -0 0 0 -0 0 -0 -0 -0 -0 -0 -0 -0 -0 -0 -0 -0 -0 -0 -0 -0 -0 -0 0 0 0 0 0 0 0 0 0 0 0 0 0 0 0 0 0 0 -0 0 -0
-0 -0 -0 -0 -0 -0 -0 0 0 0 -0 0 -0 -0 -0 -0 -0 -0 -0 -0 -0 -0 -0 -0 -1 -1 -1 -0 -0 -0 0 0 -0 -0 0 0 0 0 0 -0 -0 0 0 0 0 0 0 -0 -0
-0 -0 0 -0 -0 -0 -0 0 0 -0 -0 0 0 -0 -0 -0 -1 -0 -1 -0 -0 -0 -0 -0 -1 -2 -2 -1 -0 -0 -0 -0 0 0 -0 -0 0 0 0 -0 -0 -0 0 0 0 0 0 0 -0
-0 -0 0 0 0 -0 0 0 0 0 0 0 0 0 -0 -0 -1 -0 -0 -1 -1 -1 -0 -0 -1 -2 -2 -1 -1 -0 -0 0 -0 0 -0 -0 -0 0 -0 0 0 -0 -0 0 0 0 0 -0 -0
-0 -0 0 -0 -0 0 0 0 0 0 0 -0 -0 0 -0 -0 -0 -0 -0 -0 -0 -1 -1 -0 -0 -1 -1 -1 -0 -0 0 0 0 0 0 0 0 -0 -1 -1 -1 -0 -0 0 0 0 0 0 -0
0 -0 -0 -0 0 0 0 0 0 -0 0 0 -0 -0 -0 -0 -0 -0 0 0 0 0 -0 -0 -1 -2 -1 -1 -0 -0 0 0 0 0 0 0 -0 0 1 -1 -1 0 0 0 0 0 0 0 0
0 -0 -0 -0 -0 0 0 0 0 0 -0 0 0 -0 -0 -0 0 0 0 0 0 0 0 -0 0 -1 -0 -0 0 0 0 0 0 0 0 0 -0 -0 0 2 1 1 1 1 0 0 0 0 0
0 -0 -0 -0 -0 0 0 0 0 -0 0 0 -0 -0 -0 -0 -0 0 0 0 0 0 0 0 -0 -0 -0 0 0 0 0 0 0 0 0 0 0 1 1 1 2 2 1 1 1 0 0 0 0
Wind_Speed_500mb
12 4 9 11 4 3 8 12 8 24 25 32 29 44 37 42 15 19 50 45 46 41 41 35 28 28 27 24 18 16 16 16 17 15 14 13 17 20 19 22 23 25 28 32 33 35 33 33 37
7 11 15 11 6 7 10 10 26 7 36 35 49 46 47 39 34 52 47 52 45 41 38 37 30 27 25 23 17 16 16 15 13 12 14 15 17 19 20 26 25 28 36 34 34 32 32 33 36
7 10 8 6 6 3 7 19 25 23 30 24 23 33 18 16 33 42 64 51 46 42 34 35 29 25 23 21 19 16 14 15 15 13 10 15 19 22 27 30 29 33 39 36 31 31 31 32 36
6 6 11 4 12 26 20 21 28 25 20 10 36 24 23 26 21 47 61 50 43 44 33 33 30 28 24 19 19 17 16 15 16 16 11 21 27 29 31 32 32 36 36 35 34 32 30 31 35
16 8 7 9 19 32 22 27 25 25 27 22 35 23 25 17 31 58 50 49 49 46 26 34 33 30 24 20 20 20 19 18 20 24 31 39 37 34 34 31 31 33 33 32 30 29 29 31 36
8 7 6 13 24 30 25 22 20 28 34 36 40 31 13 22 49 49 47 48 46 37 34 35 34 29 25 21 19 21 21 20 22 27 31 36 36 34 34 31 30 30 31 30 28 28 27 30 32
23 14 9 9 29 25 29 11 23 30 22 32 41 17 23 42 64 58 44 48 44 41 34 35 34 31 26 22 21 21 20 22 21 23 28 31 30 29 29 31 28 29 30 29 25 23 27 29 31
17 6 16 15 12 25 30 26 25 27 29 54 48 17 30 56 69 54 64 61 46 42 34 26 30 30 23 20 19 20 20 19 20 18 20 22 23 22 21 21 25 26 27 28 23 20 27 29 32
39 8 14 7 6 25 32 13 32 19 28 19 20 41 65 68 57 51 55 55 49 45 36 33 26 24 18 7 18 20 21 20 19 17 18 24 21 16 10 16 15 21 21 22 19 17 20 27 29
10 3 6 24 1 16 36 6 21 16 13 41 45 56 67 71 69 55 48 56 49 49 40 38 33 36 27 17 10 19 17 11 8 9 5 13 11 19 18 12 11 16 19 16 13 11 15 29 30
34 4 24 28 20 15 35 11 42 46 22 27 55 65 65 64 60 60 55 60 39 46 44 38 34 26 23 19 7 11 11 6 6 12 7 10 12 6 13 9 15 16 10 8 5 11 9 52 28
9 15 17 25 10 6 9 22 33 20 22 41 52 60 68 65 59 60 57 44 45 34 47 20 30 35 16 16 6 5 0 10 12 10 9 2 15 9 15 12 18 22 6 13 26 8 11 4 36
30 20 17 13 11 20 8 31 22 22 14 52 50 60 64 56 55 53 52 41 48 36 33 37 18 28 25 17 18 10 11 6 13 11 6 4 18 23 19 10 12 19 14 10 11 3 5 3 18
11 7 17 21 14 13 25 14 16 21 24 48 54 65 61 58 55 53 54 47 44 41 35 34 33 33 19 28 28 12 8 6 4 6 10 6 15 2 7 12 9 13 16 16 14 12 6 13 26
7 20 28 19 13 14 25 17 24 25 27 41 44 50 60 54 55 56 45 51 48 44 35 44 32 33 37 24 33 20 16 3 10 20 17 6 14 15 14 8 11 12 16 16 11 9 16 10 23
27 24 13 16 15 43 21 13 19 24 28 41 39 46 54 60 49 50 46 56 43 53 42 28 28 22 26 31 22 23 10 11 18 16 11 19 11 11 8 3 8 9 17 18 12 11 10 20 15
24 3 26 19 19 41 21 26 23 21 24 41 42 40 46 55 58 47 54 53 45 65 52 39 29 35 29 22 22 19 13 13 11 17 17 16 11 5 8 9 12 18 20 25 21 19 25 17 24
10 8 23 24 16 24 24 30 24 27 26 26 34 44 38 42 43 41 46 53 55 57 57 49 43 39 42 29 13 11 14 17 14 10 14 22 10 8 11 13 13 7 8 21 23 21 25 22 25
13 15 25 22 9 12 23 28 23 27 27 30 33 38 38 39 42 47 54 54 52 49 54 63 49 43 32 29 27 22 21 17 18 19 15 12 6 9 13 15 12 7 15 9 34 24 32 25 23
17 18 29 21 11 6 19 32 22 19 23 28 34 36 40 40 45 51 59 53 51 62 67 67 53 44 42 32 35 23 17 21 18 15 16 15 19 18 13 16 15 13 19 18 20 29 30 25 17
26 20 18 4 26 24 29 26 24 18 19 26 32 37 41 43 48 48 52 57 52 62 64 59 52 44 42 43 22 21 24 20 21 23 24 26 25 27 21 20 18 18 17 21 17 29 36 34 31
23 12 14 19 25 22 37 14 7 26 20 26 36 38 40 41 43 46 51 53 54 61 56 56 62 49 36 35 38 33 21 28 27 22 23 28 25 25 23 23 24 26 26 20 15 13 29 34 37
25 19 19 24 24 37 50 22 10 8 20 29 37 42 44 46 47 47 47 48 49 55 58 65 52 46 37 39 46 35 36 30 18 29 28 30 29 32 28 29 24 24 26 23 20 17 18 32 33
22 22 30 34 26 25 41 27 18 16 38 37 42 48 51 50 48 50 49 51 54 59 65 61 56 57 49 47 46 45 39 38 35 41 37 34 37 30 18 29 20 22 21 25 21 23 22 31 41
25 30 18 13 6 21 36 19 15 40 27 38 44 52 49 54 53 53 57 58 61 66 69 64 66 65 59 57 53 52 51 45 39 41 26 30 35 29 39 36 25 17 20 23 25 30 25 29 37
19 20 9 5 17 16 26 13 11 22 33 75 65 62 52 48 53 48 53 59 65 65 67 68 66 71 67 58 53 54 56 52 54 49 44 39 35 30 26 14 36 22 22 22 24 29 31 31 33
26 16 24 27 38 18 18 23 32 23 64 91 64 71 57 42 53 49 47 49 57 70 69 68 65 63 70 62 54 51 59 59 49 43 36 44 38 33 40 35 22 25 26 22 23 26 28 37 37
25 25 24 14 8 18 16 11 21 45 25 26 28 38 34 27 24 21 20 51 49 51 61 63 62 63 59 58 54 49 53 57 56 55 54 53 44 38 29 25 31 37 31 23 25 28 34 38 42
7 19 21 22 21 9 8 14 19 18 39 34 12 33 33 32 24 16 13 12 16 17 38 52 46 45 43 43 45 44 45 51 54 55 53 55 53 52 57 39 52 49 36 32 30 32 35 33 43
19 19 27 20 14 19 12 8 11 31 26 46 61 31 32 29 28 24 22 21 21 18 21 31 37 40 39 41 44 50 48 48 46 44 40 39 44 42 39 50 49 54 46 40 39 36 37 41 41
Wind_Direction_500mb
173 93 346 283 258 336 12 71 142 99 85 98 68 86 76 53 70 121 141 140 142 138 135 131 133 133 134 131 123 107 94 84 78 79 93 107 116 124 109 102 102 108 121 122 117 110 106 108 108
177 248 259 265 277 116 86 134 90 128 100 88 83 84 69 58 94 127 139 141 139 136 138 137 131 130 131 130 124 105 92 86 77 78 95 104 120 128 114 110 104 105 125 125 119 112 108 109 107
165 225 275 253 304 120 96 112 107 85 109 120 102 87 75 93 116 131 137 140 139 133 138 141 138 132 128 126 119 106 91 75 73 78 106 126 128 123 122 115 108 110 121 119 119 119 113 113 114
350 278 260 232 103 112 150 136 117 118 108 99 104 80 85 117 123 141 141 143 137 141 152 140 135 131 128 126 121 105 92 82 81 78 76 147 139 128 125 119 115 118 121 115 117 117 118 116 117
271 268 253 151 121 94 99 121 150 149 135 133 117 103 110 116 133 144 142 147 142 144 146 141 135 133 127 126 115 102 96 90 94 85 93 121 129 127 125 123 122 122 120 122 120 117 118 119 120
230 224 222 124 95 105 118 145 164 139 133 148 111 115 120 150 142 151 155 143 155 146 143 148 137 134 129 121 112 100 95 96 100 100 106 119 126 127 130 127 128 130 129 129 125 117 119 122 122
233 317 287 336 130 112 117 147 103 123 139 140 141 106 136 156 148 153 147 143 138 134 148 154 144 139 137 123 117 106 98 102 108 112 116 121 125 128 131 132 133 132 131 132 129 132 131 124 120
20 250 360 61 59 103 137 134 97 109 116 142 143 143 157 162 154 156 150 148 146 145 145 154 152 138 141 129 116 106 92 92 105 115 123 122 116 119 126 128 131 131 133 127 126 125 144 130 117
10 13 8 34 299 115 129 153 119 111 125 134 155 151 157 159 159 151 150 153 148 157 152 155 161 142 142 133 106 97 93 85 89 104 119 117 104 120 132 134 145 141 135 126 126 119 136 139 118
156 261 79 65 340 80 103 332 111 38 52 89 92 118 145 155 158 162 163 160 153 163 163 162 157 145 152 163 68 59 91 54 66 130 164 141 155 153 166 174 155 139 137 129 126 144 144 153 148
172 297 62 70 33 17 105 257 104 128 256 142 128 137 149 158 161 162 158 156 152 148 161 168 162 140 164 183 114 101 168 176 338 358 201 91 139 203 137 172 161 113 115 116 123 147 173 117 161
3 78 62 79 81 93 83 112 124 117 50 132 143 146 152 163 163 165 171 172 172 165 162 166 146 148 163 165 193 113 71 138 264 315 346 164 144 195 194 189 141 132 155 174 213 171 242 330 144
230 114 127 114 92 77 102 60 65 54 71 128 139 145 154 165 168 168 170 176 183 164 179 168 170 167 168 180 156 218 251 188 293 320 349 201 210 211 184 209 179 134 189 191 206 199 346 231 211
98 94 122 140 115 89 98 100 124 77 86 134 140 147 158 167 175 169 168 169 176 175 177 176 168 176 187 178 183 172 231 185 219 267 286 266 265 84 200 271 298 180 197 190 153 196 232 200 137
173 163 139 143 158 117 96 105 88 104 118 115 126 146 155 168 175 168 166 172 180 178 195 171 182 213 205 205 199 180 183 219 246 247 262 222 254 251 250 251 272 238 201 194 105 210 206 149 130
293 157 154 125 153 109 354 114 119 125 130 126 137 149 154 169 181 168 178 184 182 184 166 160 184 213 198 213 198 203 184 256 246 234 235 261 258 246 222 154 224 236 227 184 194 256 203 204 204
248 96 120 137 204 142 148 130 138 128 130 134 148 159 164 178 179 176 184 179 187 192 175 167 189 193 217 219 216 197 186 235 256 233 245 253 213 211 223 219 220 227 237 210 222 218 234 189 173
350 85 91 125 149 206 114 117 140 135 134 147 149 159 174 182 184 176 179 183 190 197 199 198 196 197 215 233 192 213 205 234 210 256 266 281 218 220 231 221 236 282 206 207 224 215 213 180 170
301 286 116 120 161 205 134 132 147 148 145 153 164 173 177 185 191 188 190 196 198 197 189 199 195 217 207 197 206 219 219 230 241 250 280 318 351 239 235 236 242 222 168 222 224 214 206 229 188
281 277 118 128 156 198 136 133 143 167 160 170 170 178 181 180 190 191 191 195 201 200 196 203 202 222 206 201 204 217 220 231 241 243 251 222 250 251 238 229 215 194 205 215 211 220 212 223 198
281 353 36 351 167 195 113 115 143 168 192 175 181 184 186 179 180 187 192 196 200 203 201 204 212 213 207 211 213 209 211 234 250 230 240 250 255 247 240 232 223 223 234 219 230 219 218 217 205
300 41 306 254 240 229 168 153 256 160 208 188 188 189 183 178 176 183 188 192 197 204 207 201 220 209 215 205 205 218 230 232 230 224 236 246 252 273 243 235 227 227 235 225 235 231 219 223 210
293 319 268 259 262 264 194 117 334 157 210 217 208 188 185 185 183 182 188 191 194 198 202 206 222 224 224 227 212 218 221 238 258 244 246 238 244 257 250 236 233 228 226 229 226 193 191 222 221
258 280 260 252 235 243 80 95 224 227 202 208 211 191 188 182 188 186 189 193 196 197 202 205 214 215 231 219 232 223 220 232 233 239 227 235 255 245 263 247 244 231 224 231 236 229 216 203 211
224 237 261 257 336 311 136 131 184 223 219 213 194 192 186 182 188 194 190 195 198 201 202 207 211 222 229 235 235 238 228 230 234 248 265 254 263 300 285 242 252 268 239 231 235 231 237 227 215
302 311 201 242 294 232 82 145 173 138 281 233 193 181 176 184 184 197 201 198 201 203 209 210 215 219 225 235 248 240 242 233 238 242 245 254 263 266 321 205 270 269 273 249 248 243 239 229 223
304 297 334 290 222 218 111 91 2 337 212 244 180 170 156 177 185 187 197 207 209 205 206 209 213 222 225 235 244 249 234 240 240 248 254 270 275 277 260 274 228 258 277 257 256 252 250 240 236
261 313 301 299 340 333 104 80 143 255 309 126 143 107 114 142 148 165 185 202 201 208 207 204 209 215 227 231 240 248 240 239 243 238 239 245 248 254 255 246 238 260 268 258 264 262 255 240 237
271 275 304 337 300 221 196 94 161 105 266 329 24 129 132 130 123 113 100 100 139 190 196 192 195 204 220 229 226 241 243 240 245 251 258 259 260 257 248 242 250 257 254 261 258 262 258 247 244
285 271 284 279 326 322 344 126 244 234 58 85 278 258 144 128 120 120 113 110 115 139 154 180 193 206 216 225 232 228 235 240 243 257 263 268 270 271 261 235 246 255 253 248 255 254 255 257 239
Wind_Speed_850mb
12 4 9 11 4 3 8 12 8 24 25 32 29 44 37 42 15 19 50 45 46 41 41 35 28 28 27 24 18 16 16 16 17 15 14 13 17 20 19 22 23 25 28 32 33 35 33 33 37
7 11 15 11 6 7 10 10 26 7 36 35 49 46 47 39 34 52 47 52 45 41 38 37 30 27 25 23 17 16 16 15 13 12 14 15 17 19 20 26 25 28 36 34 34 32 32 33 36
7 10 8 6 6 3 7 19 25 23 30 24 23 33 18 16 33 42 64 51 46 42 34 35 29 25 23 21 19 16 14 15 15 13 10 15 19 22 27 30 29 33 39 36 31 31 31 32 36
6 6 11 4 12 26 20 21 28 25 20 10 36 24 23 26 21 47 61 50 43 44 33 33 30 28 24 19 19 17 16 15 16 16 11 21 27 29 31 32 32 36 36 35 34 32 30 31 35
16 8 7 9 19 32 22 27 25 25 27 22 35 23 25 17 31 58 50 49 49 46 26 34 33 30 24 20 20 20 19 18 20 24 31 39 37 34 34 31 31 33 33 32 30 29 29 31 36
8 7 6 13 24 30 25 22 20 28 34 36 40 31 13 22 49 49 47 48 46 37 34 35 34 29 25 21 19 21 21 20 22 27 31 36 36 34 34 31 30 30 31 30 28 28 27 30 32
23 14 9 9 29 25 29 11 23 30 22 32 41 17 23 42 64 58 44 48 44 41 34 35 34 31 26 22 21 21 20 22 21 23 28 31 30 29 29 31 28 29 30 29 25 23 27 29 31
17 6 16 15 12 25 30 26 25 27 29 54 48 17 30 56 69 54 64 61 46 42 34 26 30 30 23 20 19 20 20 19 20 18 20 22 23 22 21 21 25 26 27 28 23 20 27 29 32
39 8 14 7 6 25 32 13 32 19 28 19 20 41 65 68 57 51 55 55 49 45 36 33 26 24 18 7 18 20 21 20 19 17 18 24 21 16 10 16 15 21 21 22 19 17 20 27 29
10 3 6 24 1 16 36 6 21 16 13 41 45 56 67 71 69 55 48 56 49 49 40 38 33 36 27 17 10 19 17 11 8 9 5 13 11 19 18 12 11 16 19 16 13 11 15 29 30
34 4 24 28 20 15 35 11 42 46 22 27 55 65 65 64 60 60 55 60 39 46 44 38 34 26 23 19 7 11 11 6 6 12 7 10 12 6 13 9 15 16 10 8 5 11 9 52 28
9 15 17 25 10 6 9 22 33 20 22 41 52 60 68 65 59 60 57 44 45 34 47 20 30 35 16 16 6 5 0 10 12 10 9 2 15 9 15 12 18 22 6 13 26 8 11 4 36
30 20 17 13 11 20 8 31 22 22 14 52 50 60 64 56 55 53 52 41 48 36 33 37 18 28 25 17 18 10 11 6 13 11 6 4 18 23 19 10 12 19 14 10 11 3 5 3 18
11 7 17 21 14 13 25 14 16 21 24 48 54 65 61 58 55 53 54 47 44 41 35 34 33 33 19 28 28 12 8 6 4 6 10 6 15 2 7 12 9 13 16 16 14 12 6 13 26
7 20 28 19 13 14 25 17 24 25 27 41 44 50 60 54 55 56 45 51 48 44 35 44 32 33 37 24 33 20 16 3 10 20 17 6 14 15 14 8 11 12 16 16 11 9 16 10 23
27 24 13 16 15 43 21 13 19 24 28 41 39 46 54 60 49 50 46 56 43 53 42 28 28 22 26 31 22 23 10 11 18 16 11 19 11 11 8 3 8 9 17 18 12 11 10 20 15
24 3 26 19 19 41 21 26 23 21 24 41 42 40 46 55 58 47 54 53 45 65 52 39 29 35 29 22 22 19 13 13 11 17 17 16 11 5 8 9 12 18 20 25 21 19 25 17 24
10 8 23 24 16 24 24 30 24 27 26 26 34 44 38 42 43 41 46 53 55 57 57 49 43 39 42 29 13 11 14 17 14 10 14 22 10 8 11 13 13 7 8 21 23 21 25 22 25
13 15 25 22 9 12 23 28 23 27 27 30 33 38 38 39 42 47 54 54 52 49 54 63 49 43 32 29 27 22 21 17 18 19 15 12 6 9 13 15 12 7 15 9 34 24 32 25 23
17 18 29 21 11 6 19 32 22 19 23 28 34 36 40 40 45 51 59 53 51 62 67 67 53 44 42 32 35 23 17 21 18 15 16 15 19 18 13 16 15 13 19 18 20 29 30 25 17
26 20 18 4 26 24 29 26 24 18 19 26 32 37 41 43 48 48 52 57 52 62 64 59 52 44 42 43 22 21 24 20 21 23 24 26 25 27 21 20 18 18 17 21 17 29 36 34 31
23 12 14 19 25 22 37 14 7 26 20 26 36 38 40 41 43 46 51 53 54 61 56 56 62 49 36 35 38 33 21 28 27 22 23 28 25 25 23 23 24 26 26 20 15 13 29 34 37
25 19 19 24 24 37 50 22 10 8 20 29 37 42 44 46 47 47 47 48 49 55 58 65 52 46 37 39 46 35 36 30 18 29 28 30 29 32 28 29 24 24 26 23 20 17 18 32 33
22 22 30 34 26 25 41 27 18 16 38 37 42 48 51 50 48 50 49 51 54 59 65 61 56 57 49 47 46 45 39 38 35 41 37 34 37 30 18 29 20 22 21 25 21 23 22 31 41
25 30 18 13 6 21 36 19 15 40 27 38 44 52 49 54 53 53 57 58 61 66 69 64 66 65 59 57 53 52 51 45 39 41 26 30 35 29 39 36 25 17 20 23 25 30 25 29 37
19 20 9 5 17 16 26 13 11 22 33 75 65 62 52 48 53 48 53 59 65 65 67 68 66 71 67 58 53 54 56 52 54 49 44 39 35 30 26 14 36 22 22 22 24 29 31 31 33
26 16 24 27 38 18 18 23 32 23 64 91 64 71 57 42 53 49 47 49 57 70 69 68 65 63 70 62 54 51 59 59 49 43 36 44 38 33 40 35 22 25 26 22 23 26 28 37 37
25 25 24 14 8 18 16 11 21 45 25 26 28 38 34 27 24 21 20 51 49 51 61 63 62 63 59 58 54 49 53 57 56 55 54 53 44 38 29 25 31 37 31 23 25 28 34 38 42
7 19 21 22 21 9 8 14 19 18 39 34 12 33 33 32 24 16 13 12 16 17 38 52 46 45 43 43 45 44 45 51 54 55 53 55 53 52 57 39 52 49 36 32 30 32 35 33 43
19 19 27 20 14 19 12 8 11 31 26 46 61 31 32 29 28 24 22 21 21 18 21 31 37 40 39 41 44 50 48 48 46 44 40 39 44 42 39 50 49 54 46 40 39 36 37 41 41
Wind_Direction_850mb
173 93 346 283 258 336 12 71 142 99 85 98 68 86 76 53 70 121 141 140 142 138 135 131 133 133 134 131 123 107 94 84 78 79 93 107 116 124 109 102 102 108 121 122 117 110 106 108 108
177 248 259 265 277 116 86 134 90 128 100 88 83 84 69 58 94 127 139 141 139 136 138 137 131 130 131 130 124 105 92 86 77 78 95 104 120 128 114 110 104 105 125 125 119 112 108 109 107
165 225 275 253 304 120 96 112 107 85 109 120 102 87 75 93 116 131 137 140 139 133 138 141 138 132 128 126 119 106 91 75 73 78 106 126 128 123 122 115 108 110 121 119 119 119 113 113 114
350 278 260 232 103 112 150 136 117 118 108 99 104 80 85 117 123 141 141 143 137 141 152 140 135 131 128 126 121 105 92 82 81 78 76 147 139 128 125 119 115 118 121 115 117 117 118 116 117
271 268 253 151 121 94 99 121 150 149 135 133 117 103 110 116 133 144 142 147 142 144 146 141 135 133 127 126 115 102 96 90 94 85 93 121 129 127 125 123 122 122 120 122 120 117 118 119 120
230 224 222 124 95 105 118 145 164 139 133 148 111 115 120 150 142 151 155 143 155 146 143 148 137 134 129 121 112 100 95 96 100 100 106 119 126 127 130 127 128 130 129 129 125 117 119 122 122
233 317 287 336 130 112 117 147 103 123 139 140 141 106 136 156 148 153 147 143 138 134 148 154 144 139 137 123 117 106 98 102 108 112 116 121 125 128 131 132 133 132 131 132 129 132 131 124 120
20 250 360 61 59 103 137 134 97 109 116 142 143 143 157 162 154 156 150 148 146 145 145 154 152 138 141 129 116 106 92 92 105 115 123 122 116 119 126 128 131 131 133 127 126 125 144 130 117
10 13 8 34 299 115 129 153 119 111 125 134 155 151 157 159 159 151 150 153 148 157 152 155 161 142 142 133 106 97 93 85 89 104 119 117 104 120 132 134 145 141 135 126 126 119 136 139 118
156 261 79 65 340 80 103 332 111 38 52 89 92 118 145 155 158 162 163 160 153 163 163 162 157 145 152 163 68 59 91 54 66 130 164 141 155 153 166 174 155 139 137 129 126 144 144 153 148
172 297 62 70 33 17 105 257 104 128 256 142 128 137 149 158 161 162 158 156 152 148 161 168 162 140 164 183 114 101 168 176 338 358 201 91 139 203 137 172 161 113 115 116 123 147 173 117 161
3 78 62 79 81 93 83 112 124 117 50 132 143 146 152 163 163 165 171 172 172 165 162 166 146 148 163 165 193 113 71 138 264 315 346 164 144 195 194 189 141 132 155 174 213 171 242 330 144
230 114 127 114 92 77 102 60 65 54 71 128 139 145 154 165 168 168 170 176 183 164 179 168 170 167 168 180 156 218 251 188 293 320 349 201 210 211 184 209 179 134 189 191 206 199 346 231 211
98 94 122 140 115 89 98 100 124 77 86 134 140 147 158 167 175 169 168 169 176 175 177 176 168 176 187 178 183 172 231 185 219 267 286 266 265 84 200 271 298 180 197 190 153 196 232 200 137
173 163 139 143 158 117 96 105 88 104 118 115 126 146 155 168 175 168 166 172 180 178 195 171 182 213 205 205 199 180 183 219 246 247 262 222 254 251 250 251 272 238 201 194 105 210 206 149 130
293 157 154 125 153 109 354 114 119 125 130 126 137 149 154 169 181 168 178 184 182 184 166 160 184 213 198 213 198 203 184 256 246 234 235 261 258 246 222 154 224 236 227 184 194 256 203 204 204
248 96 120 137 204 142 148 130 138 128 130 134 148 159 164 178 179 176 184 179 187 192 175 167 189 193 217 219 216 197 186 235 256 233 245 253 213 211 223 219 220 227 237 210 222 218 234 189 173
350 85 91 125 149 206 114 117 140 135 134 147 149 159 174 182 184 176 179 183 190 197 199 198 196 197 215 233 192 213 205 234 210 256 266 281 218 220 231 221 236 282 206 207 224 215 213 180 170
301 286 116 120 161 205 134 132 147 148 145 153 164 173 177 185 191 188 190 196 198 197 189 199 195 217 207 197 206 219 219 230 241 250 280 318 351 239 235 236 242 222 168 222 224 214 206 229 188
281 277 118 128 156 198 136 133 143 167 160 170 170 178 181 180 190 191 191 195 201 200 196 203 202 222 206 201 204 217 220 231 241 243 251 222 250 251 238 229 215 194 205 215 211 220 212 223 198
281 353 36 351 167 195 113 115 143 168 192 175 181 184 186 179 180 187 192 196 200 203 201 204 212 213 207 211 213 209 211 234 250 230 240 250 255 247 240 232 223 223 234 219 230 219 218 217 205
300 41 306 254 240 229 168 153 256 160 208 188 188 189 183 178 176 183 188 192 197 204 207 201 220 209 215 205 205 218 230 232 230 224 236 246 252 273 243 235 227 227 235 225 235 231 219 223 210
293 319 268 259 262 264 194 117 334 157 210 217 208 188 185 185 183 182 188 191 194 198 202 206 222 224 224 227 212 218 221 238 258 244 246 238 244 257 250 236 233 228 226 229 226 193 191 222 221
258 280 260 252 235 243 80 95 224 227 202 208 211 191 188 182 188 186 189 193 196 197 202 205 214 215 231 219 232 223 220 232 233 239 227 235 255 245 263 247 244 231 224 231 236 229 216 203 211
224 237 261 257 336 311 136 131 184 223 219 213 194 192 186 182 188 194 190 195 198 201 202 207 211 222 229 235 235 238 228 230 234 248 265 254 263 300 285 242 252 268 239 231 235 231 237 227 215
302 311 201 242 294 232 82 145 173 138 281 233 193 181 176 184 184 197 201 198 201 203 209 210 215 219 225 235 248 240 242 233 238 242 245 254 263 266 321 205 270 269 273 249 248 243 239 229 223
304 297 334 290 222 218 111 91 2 337 212 244 180 170 156 177 185 187 197 207 209 205 206 209 213 222 225 235 244 249 234 240 240 248 254 270 275 277 260 274 228 258 277 257 256 252 250 240 236
261 313 301 299 340 333 104 80 143 255 309 126 143 107 114 142 148 165 185 202 201 208 207 204 209 215 227 231 240 248 240 239 243 238 239 245 248 254 255 246 238 260 268 258 264 262 255 240 237
271 275 304 337 300 221 196 94 161 105 266 329 24 129 132 130 123 113 100 100 139 190 196 192 195 204 220 229 226 241 243 240 245 251 258 259 260 257 248 242 250 257 254 261 258 262 258 247 244
285 271 284 279 326 322 344 126 244 234 58 85 278 258 144 128 120 120 113 110 115 139 154 180 193 206 216 225 232 228 235 240 243 257 263 268 270 271 261 235 246 255 253 248 255 254 255 257 239